Location: Rotheul
(50.2849°N, 11.2349°E)
Time: 02:06:29
(UTC+02:00)

ISS - Pass Details

Date: 19 July 2018
Orbit: 402 x 408 km, 51.6° (Epoch: 17 July)

Event Time Altitude Azimuth Distance (km) Brightness Sun altitude
Exits shadow 01:30:34 - 267° (W) 1,743 -0.7 -18.8°
Reaches altitude 10° 01:31:15 10° 268° (W) 1,465 -1.1 -18.8°
Maximum altitude 01:34:31 71° 353° (N) 434 -3.6 -18.8°
Drops below altitude 10° 01:37:49 10° 78° (ENE) 1,470 -0.8 -18.7°
Sets 01:39:54 0° 81° (E) 2,332 0.2 -18.7°
